Home > Time Zones > World Clock > Weather > Cuba > Havana > Past weeks

Flag for Cuba Weather past 2 weeks in Havana, Cuba

Now
91 °F

Scattered clouds.


Feels Like: 97 °F
Forecast: 79 / 89 °F
Wind: 5 mph from Southeast

Location: Aeropuerto Jose Marti - Rancho-Boyeros - Habana

Current Time: Sep 1, 2014 at 3:14:48 PM

Latest Report: Sep 1, 2014 at 2:55 PM


Visibility: 6 mi

Pressure: 30.01 "Hg

Humidity: 49%

Dew point: 70 °F

Location of HavanaLocation

Historic Weather in Havana — Graph

°F

Havana temperature yesterday

Maximum temperature yesterday: 90 °F (at 1:55 PM)
Minimum temperature yesterday: 73 °F (at 3:55 AM)
Average temperature yesterday: 80 °F

Past Weeks' High & Low Weather Summary

 TemperatureHumidityPressure
High93 °F (Aug 20, 2:55 PM)94% (Aug 20, 3:55 AM)30.09 "Hg (Aug 20, 3:55 AM)
Low70 °F (Aug 22, 5:55 AM)46% (Aug 17, 2:55 PM)29.74 "Hg (Aug 25, 4:55 PM)
Average81 °F74%29.97 "Hg
* Reported Aug 17 1:55 PM — Sep 1 1:55 PM, Havana, Weather by CustomWeather, © 2014

Note: Actual official high and low records may vary slightly from our data, if they occured in-between our weather recording intervals... More about our weather records

Advertising

Havana weather history for previous 24 hours

 ConditionsComfort  
Time TempWeatherWind HumidityBarometerVisibility
1:55 PM
Sep 1
90 °FScattered clouds.6 mph49%30.07 "Hg6 mi
12:55 PM88 °FScattered clouds.7 mph59%30.07 "Hg6 mi
11:55 AM88 °FPassing clouds.9 mph59%30.09 "Hg6 mi
10:55 AM86 °FPassing clouds.9 mph59%30.07 "Hg6 mi
9:55 AM84 °FPassing clouds.9 mph70%30.07 "Hg6 mi
8:55 AM81 °FPassing clouds.6 mph79%30.07 "Hg6 mi
7:55 AM75 °FPassing clouds.2 mph89%30.04 "Hg6 mi
6:55 AM73 °FPassing clouds.2 mph89%30.04 "Hg6 mi
5:55 AM73 °FClear.3 mph89%30.01 "Hg6 mi
4:55 AM73 °FClear.2 mph89%30.01 "Hg6 mi
3:55 AM73 °FClear.2 mph89%30.01 "Hg6 mi
2:55 AM73 °FClear.3 mph89%30.04 "Hg6 mi
1:55 AM73 °FClear.3 mph89%30.04 "Hg6 mi
12:55 AM73 °FClear.3 mph89%30.04 "Hg6 mi
11:55 PM
Aug 31
75 °FClear.2 mph83%30.07 "Hg6 mi
10:55 PM75 °FClear.2 mph83%30.04 "Hg6 mi
9:55 PM75 °FPassing clouds.3 mph89%30.04 "Hg6 mi
8:55 PM75 °FPassing clouds.5 mph89%30.04 "Hg6 mi
7:55 PM81 °FBroken clouds.9 mph74%30.04 "Hg5 mi
6:55 PM82 °FPartly sunny.7 mph70%30.04 "Hg6 mi
5:55 PM86 °FPartly sunny.3 mph62%30.01 "Hg6 mi
4:55 PM88 °FPartly sunny.7 mph55%30.01 "Hg6 mi
3:55 PM90 °FPartly sunny.8 mph52%30.01 "HgN/A
Weather by CustomWeather, © 2014

See weather overviewHow to use our weather pages